This is the latest recevied weather packets stored in our database for station/object OK2ILA-3. If no packets are shown the sender has not sent any weather packets the latest 1 day(s).
| Time | Temp. | Humidity | Pressure | Rain* | Wind** | Luminosity | Snow |
|---|---|---|---|---|---|---|---|
| 1778044086 | 12.22° C | 12% | 5325.5 hPa | 0 mm | - | - | - |
| 1778042875 | 12.22° C | 54% | 5325.5 hPa | 0 mm | - | - | - |
| 1778042270 | 11.67° C | 100% | 5325.5 hPa | 0 mm | - | - | - |
| 1778041664 | 11.67° C | 28% | 0 hPa | 0 mm | - | - | - |
| 1778041059 | 11.67° C | 100% | 14.7 hPa | 0 mm | - | - | - |
| 1778039241 | 11.11° C | 28% | 409.6 hPa | 0 mm | - | - | - |
| 1778038636 | 10.56° C | 24% | 409.6 hPa | 0 mm | - | - | - |
| 1778037426 | 10° C | 54% | 409.6 hPa | 0 mm | - | - | - |
| 1778036819 | 10.56° C | 100% | 116.8 hPa | 0 mm | - | - | - |
| 1778036214 | 10.56° C | 29% | 422.4 hPa | 0 mm | - | - | - |
| 1778035609 | 10.56° C | 100% | 422.4 hPa | 0 mm | - | - | - |
| 1778035005 | 10.56° C | 53% | 422.4 hPa | 0 mm | - | - | - |
| 1778034397 | 10.56° C | 5% | 422.4 hPa | 0 mm | - | - | - |
| 1778033792 | 11.11° C | 28% | 4096.2 hPa | 0 mm | - | - | - |
| 1778033188 | 11.11° C | 24% | 4096.2 hPa | 0 mm | - | - | - |
| 1778031973 | 11.11° C | 54% | 4096.2 hPa | 0 mm | - | - | - |
| 1778031369 | 11.67° C | 28% | 4096.2 hPa | 0 mm | - | - | - |
| 1778030157 | 11.67° C | 19% | 1638.9 hPa | 0 mm | - | - | - |
| 1778029553 | 11.67° C | 3% | 1638.9 hPa | 0 mm | - | - | - |
| 1778028946 | 11.67° C | 28% | 2457.6 hPa | 0 mm | - | - | - |
| 1778028337 | 11.67° C | 100% | 0.1 hPa | 0 mm | - | - | - |
| 1778027731 | 11.67° C | 100% | 17 hPa | 0 mm | - | - | - |
| 1778027115 | 11.67° C | 3% | 0.1 hPa | 0 mm | - | - | - |
| 1778023480 | 12.22° C | 22% | 19 hPa | 0 mm | - | - | - |
| 1778021663 | 12.22° C | 28% | 0.2 hPa | 0 mm | - | - | - |
* Rain latest 24 hours (hover to see other rain measurements)
** Current wind speed in m/s (hover to see current wind gust speed)